Time,TemperatureF,DewpointF,PressureIn,WindDirection,WindDirectionDegrees,WindSpeedMPH,WindSpeedGustMPH,Humidity,HourlyPrecipIn,Conditions,Clouds,dailyrainin,SoftwareType,DateUTC
2013-10-22 00:02:00,61.3,59.6,29.89,SSE,163,0.0,3.0,94,0.00,,,0.00,Wunderground v.1.15,2013-10-22 05:02:00,
2013-10-22 00:07:00,61.3,59.6,29.89,SSE,163,0.0,3.0,94,0.00,,,0.00,Wunderground v.1.15,2013-10-22 05:07:00,
2013-10-22 00:12:00,61.3,59.6,29.88,SSE,163,0.0,0.0,94,0.00,,,0.00,Wunderground v.1.15,2013-10-22 05:12:00,
2013-10-22 00:17:00,61.3,59.6,29.88,SSE,163,0.0,0.0,94,0.00,,,0.00,Wunderground v.1.15,2013-10-22 05:17:00,
2013-10-22 00:22:00,61.3,59.6,29.88,SSE,163,0.0,0.0,94,0.00,,,0.00,Wunderground v.1.15,2013-10-22 05:22:00,
2013-10-22 00:27:00,61.2,59.5,29.88,SSE,163,0.0,0.0,94,0.00,,,0.00,Wunderground v.1.15,2013-10-22 05:27:00,
2013-10-22 00:32:00,61.2,59.5,29.88,SSE,163,0.0,0.0,94,0.00,,,0.00,Wunderground v.1.15,2013-10-22 05:32:00,
2013-10-22 00:37:00,61.1,59.4,29.88,SSE,163,0.0,1.0,94,0.00,,,0.00,Wunderground v.1.15,2013-10-22 05:37:00,
2013-10-22 00:42:00,61.1,59.4,29.88,SSE,163,0.0,1.0,94,0.00,,,0.00,Wunderground v.1.15,2013-10-22 05:42:00,
2013-10-22 00:47:00,61.1,59.4,29.88,SSE,163,0.0,1.0,94,0.00,,,0.00,Wunderground v.1.15,2013-10-22 05:47:00,
2013-10-22 00:52:00,61.1,59.4,29.88,SSE,163,0.0,1.0,94,0.00,,,0.00,Wunderground v.1.15,2013-10-22 05:52:00,
2013-10-22 00:57:00,61.1,59.4,29.88,SSE,163,0.0,1.0,94,0.00,,,0.00,Wunderground v.1.15,2013-10-22 05:57:00,
2013-10-22 01:02:00,61.1,59.4,29.88,SSE,163,0.0,1.0,94,0.00,,,0.00,Wunderground v.1.15,2013-10-22 06:02:00,
2013-10-22 01:07:00,61.1,59.4,29.88,SSE,163,0.0,1.0,94,0.00,,,0.00,Wunderground v.1.15,2013-10-22 06:07:00,
2013-10-22 01:12:00,61.0,59.3,29.88,SSE,163,0.0,1.0,94,0.00,,,0.00,Wunderground v.1.15,2013-10-22 06:12:00,
2013-10-22 01:17:00,61.0,59.3,29.88,SSE,163,0.0,1.0,94,0.00,,,0.00,Wunderground v.1.15,2013-10-22 06:17:00,
2013-10-22 01:22:00,61.0,59.3,29.88,SSE,163,0.0,1.0,94,0.00,,,0.00,Wunderground v.1.15,2013-10-22 06:22:00,
2013-10-22 01:27:00,61.0,59.3,29.88,SSE,163,0.0,1.0,94,0.00,,,0.00,Wunderground v.1.15,2013-10-22 06:27:00,
2013-10-22 01:32:00,61.0,59.3,29.88,SSE,163,0.0,1.0,94,0.00,,,0.00,Wunderground v.1.15,2013-10-22 06:32:00,
2013-10-22 01:37:00,60.9,59.2,29.88,SSE,163,0.0,1.0,94,0.00,,,0.00,Wunderground v.1.15,2013-10-22 06:37:00,
2013-10-22 01:42:00,61.0,59.3,29.89,SSE,163,0.0,1.0,94,0.00,,,0.00,Wunderground v.1.15,2013-10-22 06:42:00,
2013-10-22 01:47:00,60.9,59.2,29.89,SSE,163,0.0,1.0,94,0.00,,,0.00,Wunderground v.1.15,2013-10-22 06:47:00,
2013-10-22 01:52:00,61.0,59.3,29.89,SSE,163,0.0,1.0,94,0.00,,,0.00,Wunderground v.1.15,2013-10-22 06:52:00,
2013-10-22 01:57:00,61.0,59.3,29.88,SSE,163,0.0,1.0,94,0.00,,,0.00,Wunderground v.1.15,2013-10-22 06:57:00,
2013-10-22 02:02:00,61.0,59.3,29.88,SSE,163,0.0,1.0,94,0.00,,,0.00,Wunderground v.1.15,2013-10-22 07:02:00,
2013-10-22 02:07:00,61.0,59.3,29.88,SSE,163,0.0,1.0,94,0.00,,,0.00,Wunderground v.1.15,2013-10-22 07:07:00,
2013-10-22 02:12:00,61.0,59.3,29.88,SSE,163,0.0,1.0,94,0.00,,,0.00,Wunderground v.1.15,2013-10-22 07:12:00,
2013-10-22 02:17:00,60.9,59.2,29.88,SSE,163,0.0,1.0,94,0.00,,,0.00,Wunderground v.1.15,2013-10-22 07:17:00,
2013-10-22 02:22:00,60.9,59.2,29.88,SSE,163,0.0,1.0,94,0.00,,,0.00,Wunderground v.1.15,2013-10-22 07:22:00,
2013-10-22 02:27:00,60.9,59.2,29.87,SSE,163,0.0,1.0,94,0.00,,,0.00,Wunderground v.1.15,2013-10-22 07:27:00,
2013-10-22 02:32:00,60.9,59.2,29.87,SSE,163,0.0,1.0,94,0.00,,,0.00,Wunderground v.1.15,2013-10-22 07:32:00,
2013-10-22 02:37:00,60.9,59.2,29.87,SSE,163,1.0,1.0,94,0.00,,,0.00,Wunderground v.1.15,2013-10-22 07:37:00,
2013-10-22 02:42:00,60.9,59.2,29.88,SSE,163,1.0,1.0,94,0.00,,,0.00,Wunderground v.1.15,2013-10-22 07:42:00,
2013-10-22 02:47:00,60.9,59.2,29.88,SSE,163,0.0,1.0,94,0.00,,,0.00,Wunderground v.1.15,2013-10-22 07:47:00,
2013-10-22 02:52:00,60.9,59.2,29.88,SSE,163,1.0,1.0,94,0.00,,,0.00,Wunderground v.1.15,2013-10-22 07:52:00,
2013-10-22 02:57:00,60.9,59.2,29.87,SSE,163,1.0,1.0,94,0.00,,,0.00,Wunderground v.1.15,2013-10-22 07:57:00,
2013-10-22 03:02:00,60.9,59.2,29.87,SSE,163,1.0,1.0,94,0.00,,,0.00,Wunderground v.1.15,2013-10-22 08:02:00,
2013-10-22 03:07:00,60.9,59.2,29.87,SSE,161,1.0,1.0,94,0.00,,,0.00,Wunderground v.1.15,2013-10-22 08:07:00,
2013-10-22 03:12:00,60.8,59.1,29.88,SSE,161,1.0,1.0,94,0.00,,,0.00,Wunderground v.1.15,2013-10-22 08:12:00,
2013-10-22 03:17:00,60.9,59.2,29.88,SSE,161,0.0,1.0,94,0.00,,,0.00,Wunderground v.1.15,2013-10-22 08:17:00,
2013-10-22 03:22:00,60.8,59.1,29.88,SSE,161,0.0,1.0,94,0.00,,,0.00,Wunderground v.1.15,2013-10-22 08:22:00,
2013-10-22 03:27:00,60.9,59.2,29.88,SSE,161,0.0,2.0,94,0.00,,,0.00,Wunderground v.1.15,2013-10-22 08:27:00,
2013-10-22 03:32:00,60.9,59.2,29.88,SSE,161,1.0,1.0,94,0.00,,,0.00,Wunderground v.1.15,2013-10-22 08:32:00,
2013-10-22 03:37:00,60.9,59.2,29.88,SSE,161,0.0,1.0,94,0.00,,,0.00,Wunderground v.1.15,2013-10-22 08:37:00,
2013-10-22 03:42:00,60.9,59.2,29.87,SSE,161,1.0,1.0,94,0.00,,,0.00,Wunderground v.1.15,2013-10-22 08:42:00,
2013-10-22 03:47:00,60.9,59.2,29.87,SSE,161,1.0,1.0,94,0.00,,,0.00,Wunderground v.1.15,2013-10-22 08:47:00,
2013-10-22 03:52:00,60.8,59.1,29.87,SSE,161,1.0,1.0,94,0.00,,,0.00,Wunderground v.1.15,2013-10-22 08:52:00,
2013-10-22 03:57:00,60.8,59.1,29.85,SSE,150,1.0,1.0,94,0.00,,,0.00,Wunderground v.1.15,2013-10-22 08:57:00,
2013-10-22 04:02:00,60.8,59.1,29.85,WNW,283,1.0,2.0,94,0.00,,,0.00,Wunderground v.1.15,2013-10-22 09:02:00,
2013-10-22 04:07:00,60.8,59.1,29.85,WNW,283,1.0,2.0,94,0.00,,,0.00,Wunderground v.1.15,2013-10-22 09:07:00,
2013-10-22 04:12:00,60.8,59.1,29.86,WNW,283,0.0,1.0,94,0.00,,,0.00,Wunderground v.1.15,2013-10-22 09:12:00,
2013-10-22 04:17:00,60.8,59.1,29.86,WNW,283,0.0,1.0,94,0.00,,,0.00,Wunderground v.1.15,2013-10-22 09:17:00,
2013-10-22 04:22:00,60.8,59.1,29.86,North,5,0.0,2.0,94,0.00,,,0.00,Wunderground v.1.15,2013-10-22 09:22:00,
2013-10-22 04:27:00,60.8,59.1,29.85,North,10,1.0,2.0,94,0.00,,,0.00,Wunderground v.1.15,2013-10-22 09:27:00,
2013-10-22 04:32:00,60.8,59.1,29.85,NNE,22,1.0,1.0,94,0.00,,,0.00,Wunderground v.1.15,2013-10-22 09:32:00,
2013-10-22 04:37:00,60.7,59.0,29.85,NNE,22,1.0,1.0,94,0.00,,,0.00,Wunderground v.1.15,2013-10-22 09:37:00,
2013-10-22 04:42:00,60.7,59.0,29.86,NNE,22,0.0,1.0,94,0.00,,,0.00,Wunderground v.1.15,2013-10-22 09:42:00,
2013-10-22 04:47:00,60.7,59.0,29.86,NNE,22,1.0,1.0,94,0.00,,,0.00,Wunderground v.1.15,2013-10-22 09:47:00,
2013-10-22 04:52:00,60.7,59.0,29.86,NNE,22,2.0,3.0,94,0.00,,,0.00,Wunderground v.1.15,2013-10-22 09:52:00,
2013-10-22 04:57:00,60.6,58.9,29.86,NNE,24,2.0,3.0,94,0.00,,,0.00,Wunderground v.1.15,2013-10-22 09:57:00,
2013-10-22 05:02:00,60.6,58.9,29.86,NNE,24,1.0,1.0,94,0.00,,,0.00,Wunderground v.1.15,2013-10-22 10:02:00,
2013-10-22 05:07:00,60.6,58.9,29.86,NNE,24,0.0,1.0,94,0.00,,,0.00,Wunderground v.1.15,2013-10-22 10:07:00,
2013-10-22 05:12:00,60.5,58.8,29.88,NNE,24,1.0,1.0,94,0.00,,,0.00,Wunderground v.1.15,2013-10-22 10:12:00,
2013-10-22 05:17:00,60.5,58.8,29.88,NNE,24,1.0,1.0,94,0.00,,,0.00,Wunderground v.1.15,2013-10-22 10:17:00,
2013-10-22 05:22:00,60.5,58.8,29.88,NNE,24,1.0,1.0,94,0.00,,,0.00,Wunderground v.1.15,2013-10-22 10:22:00,
2013-10-22 05:27:00,60.4,58.7,29.88,NNE,24,1.0,1.0,94,0.00,,,0.00,Wunderground v.1.15,2013-10-22 10:27:00,
2013-10-22 05:32:00,60.4,58.7,29.88,NNE,24,1.0,1.0,94,0.00,,,0.00,Wunderground v.1.15,2013-10-22 10:32:00,
2013-10-22 05:37:00,60.4,58.7,29.88,NNE,24,1.0,3.0,94,0.00,,,0.00,Wunderground v.1.15,2013-10-22 10:37:00,
2013-10-22 05:42:00,60.3,58.6,29.88,NNE,24,1.0,3.0,94,0.00,,,0.00,Wunderground v.1.15,2013-10-22 10:42:00,
2013-10-22 05:47:00,60.3,58.6,29.88,NNE,24,1.0,3.0,94,0.00,,,0.00,Wunderground v.1.15,2013-10-22 10:47:00,
2013-10-22 05:52:00,60.2,58.5,29.88,NNE,24,0.0,3.0,94,0.00,,,0.00,Wunderground v.1.15,2013-10-22 10:52:00,
2013-10-22 05:57:00,60.2,58.5,29.88,NNE,24,0.0,3.0,94,0.00,,,0.00,Wunderground v.1.15,2013-10-22 10:57:00,
2013-10-22 06:02:00,60.1,58.4,29.88,NNE,24,0.0,3.0,94,0.00,,,0.00,Wunderground v.1.15,2013-10-22 11:02:00,
2013-10-22 06:07:00,60.2,58.5,29.88,NNE,24,0.0,3.0,94,0.00,,,0.00,Wunderground v.1.15,2013-10-22 11:07:00,
2013-10-22 06:12:00,60.2,58.5,29.87,NNE,24,1.0,3.0,94,0.00,,,0.00,Wunderground v.1.15,2013-10-22 11:12:00,
2013-10-22 06:22:00,60.1,58.4,29.87,NNE,24,1.0,3.0,94,0.00,,,0.00,Wunderground v.1.15,2013-10-22 11:22:00,
2013-10-22 06:27:00,60.2,58.5,29.88,NNE,24,1.0,3.0,94,0.00,,,0.00,Wunderground v.1.15,2013-10-22 11:27:00,
2013-10-22 06:32:00,60.1,58.4,29.88,NNE,24,1.0,3.0,94,0.00,,,0.00,Wunderground v.1.15,2013-10-22 11:32:00,
2013-10-22 06:37:00,60.1,58.4,29.88,NNE,25,1.0,3.0,94,0.00,,,0.00,Wunderground v.1.15,2013-10-22 11:37:00,
2013-10-22 06:42:00,60.1,58.4,29.88,NNE,32,2.0,2.0,94,0.00,,,0.00,Wunderground v.1.15,2013-10-22 11:42:00,
2013-10-22 06:47:00,60.1,58.4,29.88,NNE,32,1.0,3.0,94,0.00,,,0.00,Wunderground v.1.15,2013-10-22 11:47:00,
2013-10-22 06:52:00,60.1,58.4,29.88,NNE,32,0.0,3.0,94,0.00,,,0.00,Wunderground v.1.15,2013-10-22 11:52:00,
2013-10-22 06:57:00,60.1,58.4,29.88,NNE,32,1.0,3.0,94,0.00,,,0.00,Wunderground v.1.15,2013-10-22 11:57:00,
2013-10-22 07:02:00,60.0,58.3,29.88,NNE,32,1.0,1.0,94,0.00,,,0.00,Wunderground v.1.15,2013-10-22 12:02:00,
2013-10-22 07:07:00,60.0,58.3,29.88,NNE,32,0.0,3.0,94,0.00,,,0.00,Wunderground v.1.15,2013-10-22 12:07:00,
2013-10-22 07:12:00,59.9,58.2,29.88,North,360,0.0,3.0,94,0.00,,,0.00,Wunderground v.1.15,2013-10-22 12:12:00,
2013-10-22 07:17:00,59.9,58.2,29.88,North,5,1.0,3.0,94,0.00,,,0.00,Wunderground v.1.15,2013-10-22 12:17:00,
2013-10-22 07:22:00,59.8,58.1,29.88,North,5,1.0,3.0,94,0.00,,,0.00,Wunderground v.1.15,2013-10-22 12:22:00,
2013-10-22 07:27:00,59.6,57.9,29.87,North,5,1.0,3.0,94,0.00,,,0.00,Wunderground v.1.15,2013-10-22 12:27:00,
2013-10-22 07:32:00,59.6,57.9,29.87,NNE,26,1.0,3.0,94,0.00,,,0.00,Wunderground v.1.15,2013-10-22 12:32:00,
2013-10-22 07:37:00,59.5,57.8,29.87,NNE,26,2.0,3.0,94,0.00,,,0.00,Wunderground v.1.15,2013-10-22 12:37:00,
2013-10-22 07:42:00,59.5,57.8,29.87,NNE,30,2.0,2.0,94,0.00,,,0.00,Wunderground v.1.15,2013-10-22 12:42:00,
2013-10-22 07:47:00,59.5,57.8,29.87,NE,46,2.0,3.0,94,0.00,,,0.00,Wunderground v.1.15,2013-10-22 12:47:00,
2013-10-22 07:52:00,59.4,57.7,29.87,NE,37,2.0,2.0,94,0.00,,,0.00,Wunderground v.1.15,2013-10-22 12:52:00,
2013-10-22 07:57:00,59.3,57.6,29.88,NE,37,1.0,3.0,94,0.00,,,0.00,Wunderground v.1.15,2013-10-22 12:57:00,
2013-10-22 08:02:00,59.4,57.7,29.88,NE,37,1.0,3.0,94,0.00,,,0.00,Wunderground v.1.15,2013-10-22 13:02:00,
2013-10-22 08:07:00,59.3,57.6,29.88,NE,42,2.0,3.0,94,0.00,,,0.00,Wunderground v.1.15,2013-10-22 13:07:00,
2013-10-22 08:12:00,59.3,57.6,29.88,NE,40,2.0,3.0,94,0.00,,,0.00,Wunderground v.1.15,2013-10-22 13:12:00,
2013-10-22 08:17:00,59.3,57.6,29.88,NE,40,2.0,3.0,94,0.00,,,0.00,Wunderground v.1.15,2013-10-22 13:17:00,
2013-10-22 08:22:00,59.3,57.9,29.88,NE,46,2.0,2.0,95,0.00,,,0.00,Wunderground v.1.15,2013-10-22 13:22:00,
2013-10-22 08:27:00,59.4,58.0,29.89,NE,46,2.0,3.0,95,0.00,,,0.00,Wunderground v.1.15,2013-10-22 13:27:00,
2013-10-22 08:37:00,59.5,58.1,29.89,NE,40,2.0,3.0,95,0.00,,,0.00,Wunderground v.1.15,2013-10-22 13:37:00,
2013-10-22 08:42:00,59.8,58.4,29.88,NE,42,2.0,3.0,95,0.00,,,0.00,Wunderground v.1.15,2013-10-22 13:42:00,
2013-10-22 08:47:00,60.2,58.8,29.88,NE,36,2.0,3.0,95,0.00,,,0.00,Wunderground v.1.15,2013-10-22 13:47:00,
2013-10-22 08:52:00,60.4,59.0,29.88,NNE,28,3.0,3.0,95,0.00,,,0.00,Wunderground v.1.15,2013-10-22 13:52:00,
2013-10-22 08:57:00,60.8,59.4,29.89,NNE,33,2.0,3.0,95,0.00,,,0.00,Wunderground v.1.15,2013-10-22 13:57:00,
2013-10-22 09:02:00,61.3,59.6,29.89,NNE,30,3.0,3.0,94,0.00,,,0.00,Wunderground v.1.15,2013-10-22 14:02:00,
2013-10-22 09:07:00,61.7,60.0,29.89,NE,55,3.0,3.0,94,0.00,,,0.00,Wunderground v.1.15,2013-10-22 14:07:00,
2013-10-22 09:12:00,62.2,60.2,29.90,NNE,24,2.0,3.0,93,0.00,,,0.00,Wunderground v.1.15,2013-10-22 14:12:00,
2013-10-22 09:17:00,62.7,60.3,29.90,NNE,31,2.0,3.0,92,0.00,,,0.00,Wunderground v.1.15,2013-10-22 14:17:00,
2013-10-22 09:22:00,63.2,60.2,29.90,NE,41,2.0,3.0,90,0.00,,,0.00,Wunderground v.1.15,2013-10-22 14:22:00,
2013-10-22 09:27:00,63.5,60.2,29.90,ENE,60,2.0,4.0,89,0.00,,,0.00,Wunderground v.1.15,2013-10-22 14:27:00,
2013-10-22 09:32:00,63.9,60.0,29.90,NNE,29,3.0,3.0,87,0.00,,,0.00,Wunderground v.1.15,2013-10-22 14:32:00,
2013-10-22 09:37:00,64.3,60.0,29.90,ENE,59,3.0,6.0,86,0.00,,,0.00,Wunderground v.1.15,2013-10-22 14:37:00,
2013-10-22 09:42:00,64.7,60.4,29.90,NNE,30,3.0,3.0,86,0.00,,,0.00,Wunderground v.1.15,2013-10-22 14:42:00,
2013-10-22 09:47:00,65.1,60.1,29.90,ENE,57,3.0,3.0,84,0.00,,,0.00,Wunderground v.1.15,2013-10-22 14:47:00,
2013-10-22 09:52:00,65.4,60.4,29.90,ENE,57,3.0,3.0,84,0.00,,,0.00,Wunderground v.1.15,2013-10-22 14:52:00,
2013-10-22 09:57:00,66.0,61.0,29.89,NNE,33,2.0,3.0,84,0.00,,,0.00,Wunderground v.1.15,2013-10-22 14:57:00,
2013-10-22 10:02:00,66.5,61.2,29.89,NE,36,2.0,2.0,83,0.00,,,0.00,Wunderground v.1.15,2013-10-22 15:02:00,
2013-10-22 10:07:00,66.9,61.2,29.89,NNE,17,2.0,3.0,82,0.00,,,0.00,Wunderground v.1.15,2013-10-22 15:07:00,
2013-10-22 10:12:00,67.2,61.5,29.89,NE,50,2.0,2.0,82,0.00,,,0.00,Wunderground v.1.15,2013-10-22 15:12:00,
2013-10-22 10:17:00,67.7,61.7,29.89,NNE,32,2.0,3.0,81,0.00,,,0.00,Wunderground v.1.15,2013-10-22 15:17:00,
2013-10-22 10:22:00,68.1,61.7,29.89,NE,34,2.0,3.0,80,0.00,,,0.00,Wunderground v.1.15,2013-10-22 15:22:00,
2013-10-22 10:27:00,68.3,61.2,29.89,NNE,26,3.0,5.0,78,0.00,,,0.00,Wunderground v.1.15,2013-10-22 15:27:00,
2013-10-22 10:32:00,68.6,61.5,29.89,North,5,3.0,3.0,78,0.00,,,0.00,Wunderground v.1.15,2013-10-22 15:32:00,
2013-10-22 10:37:00,69.0,61.5,29.89,ENE,74,2.0,3.0,77,0.00,,,0.00,Wunderground v.1.15,2013-10-22 15:37:00,
2013-10-22 10:42:00,69.1,61.2,29.88,NNE,15,3.0,3.0,76,0.00,,,0.00,Wunderground v.1.15,2013-10-22 15:42:00,
2013-10-22 10:47:00,69.1,61.2,29.88,ENE,63,4.0,5.0,76,0.00,,,0.00,Wunderground v.1.15,2013-10-22 15:47:00,
2013-10-22 10:52:00,69.3,60.7,29.88,NNE,29,4.0,4.0,74,0.00,,,0.00,Wunderground v.1.15,2013-10-22 15:52:00,
2013-10-22 10:57:00,69.7,61.4,29.88,ENE,63,4.0,4.0,75,0.00,,,0.00,Wunderground v.1.15,2013-10-22 15:57:00,
2013-10-22 11:02:00,70.3,61.2,29.88,NE,34,3.0,3.0,73,0.00,,,0.00,Wunderground v.1.15,2013-10-22 16:02:00,
2013-10-22 11:07:00,70.4,60.9,29.88,NNE,21,3.0,3.0,72,0.00,,,0.00,Wunderground v.1.15,2013-10-22 16:07:00,
2013-10-22 11:12:00,70.8,61.3,29.88,NE,38,3.0,3.0,72,0.00,,,0.00,Wunderground v.1.15,2013-10-22 16:12:00,
2013-10-22 11:17:00,71.2,61.3,29.88,North,360,3.0,3.0,71,0.00,,,0.00,Wunderground v.1.15,2013-10-22 16:17:00,
2013-10-22 11:22:00,71.5,61.2,29.88,NE,38,3.0,6.0,70,0.00,,,0.00,Wunderground v.1.15,2013-10-22 16:22:00,
2013-10-22 11:27:00,71.6,61.7,29.88,NNE,33,3.0,6.0,71,0.00,,,0.00,Wunderground v.1.15,2013-10-22 16:27:00,
2013-10-22 11:32:00,71.9,61.2,29.88,NE,42,3.0,5.0,69,0.00,,,0.00,Wunderground v.1.15,2013-10-22 16:32:00,
2013-10-22 11:37:00,72.1,61.4,29.88,West,275,3.0,5.0,69,0.00,,,0.00,Wunderground v.1.15,2013-10-22 16:37:00,
2013-10-22 11:42:00,72.6,61.4,29.88,NE,35,3.0,3.0,68,0.00,,,0.00,Wunderground v.1.15,2013-10-22 16:42:00,
2013-10-22 11:47:00,72.7,61.1,29.88,East,96,3.0,3.0,67,0.00,,,0.00,Wunderground v.1.15,2013-10-22 16:47:00,
2013-10-22 11:52:00,72.9,61.3,29.88,NE,40,3.0,3.0,67,0.00,,,0.00,Wunderground v.1.15,2013-10-22 16:52:00,
2013-10-22 11:57:00,73.1,61.5,29.88,West,263,2.0,3.0,67,0.00,,,0.00,Wunderground v.1.15,2013-10-22 16:57:00,
2013-10-22 12:02:00,73.5,61.9,29.88,NE,43,2.0,3.0,67,0.00,,,0.00,Wunderground v.1.15,2013-10-22 17:02:00,
2013-10-22 12:07:00,73.5,61.4,29.88,SW,228,2.0,3.0,66,0.00,,,0.00,Wunderground v.1.15,2013-10-22 17:07:00,
2013-10-22 12:12:00,73.7,61.6,29.88,WSW,248,2.0,2.0,66,0.00,,,0.00,Wunderground v.1.15,2013-10-22 17:12:00,
2013-10-22 12:17:00,73.9,61.8,29.88,NE,36,2.0,3.0,66,0.00,,,0.00,Wunderground v.1.15,2013-10-22 17:17:00,
2013-10-22 12:22:00,73.8,62.2,29.88,North,360,3.0,3.0,67,0.00,,,0.00,Wunderground v.1.15,2013-10-22 17:22:00,
2013-10-22 12:27:00,74.0,61.5,29.87,NE,42,3.0,3.0,65,0.00,,,0.00,Wunderground v.1.15,2013-10-22 17:27:00,
2013-10-22 12:32:00,74.6,62.5,29.87,NNE,24,2.0,3.0,66,0.00,,,0.00,Wunderground v.1.15,2013-10-22 17:32:00,
2013-10-22 12:37:00,75.1,61.2,29.87,NNE,31,2.0,3.0,62,0.00,,,0.00,Wunderground v.1.15,2013-10-22 17:37:00,
2013-10-22 12:42:00,75.1,61.2,29.87,ESE,123,2.0,3.0,62,0.00,,,0.00,Wunderground v.1.15,2013-10-22 17:42:00,
2013-10-22 12:47:00,75.1,60.3,29.87,SW,230,2.0,3.0,60,0.00,,,0.00,Wunderground v.1.15,2013-10-22 17:47:00,
2013-10-22 12:52:00,75.2,60.8,29.87,WSW,252,2.0,3.0,61,0.00,,,0.00,Wunderground v.1.15,2013-10-22 17:52:00,
2013-10-22 12:57:00,75.7,61.8,29.86,NNE,14,2.0,3.0,62,0.00,,,0.00,Wunderground v.1.15,2013-10-22 17:57:00,
2013-10-22 13:02:00,76.1,61.7,29.86,ENE,58,1.0,1.0,61,0.00,,,0.00,Wunderground v.1.15,2013-10-22 18:02:00,
2013-10-22 13:07:00,76.5,61.6,29.86,ENE,65,1.0,4.0,60,0.00,,,0.00,Wunderground v.1.15,2013-10-22 18:07:00,
2013-10-22 13:12:00,76.1,60.7,29.85,NE,39,2.0,2.0,59,0.00,,,0.00,Wunderground v.1.15,2013-10-22 18:12:00,
2013-10-22 13:17:00,76.2,61.3,29.85,NE,37,3.0,5.0,60,0.00,,,0.00,Wunderground v.1.15,2013-10-22 18:17:00,
2013-10-22 13:22:00,75.7,59.9,29.85,NNE,16,3.0,3.0,58,0.00,,,0.00,Wunderground v.1.15,2013-10-22 18:22:00,
2013-10-22 13:32:00,76.5,61.6,29.85,NNE,21,2.0,4.0,60,0.00,,,0.00,Wunderground v.1.15,2013-10-22 18:32:00,
2013-10-22 13:37:00,76.9,61.5,29.85,NE,36,2.0,4.0,59,0.00,,,0.00,Wunderground v.1.15,2013-10-22 18:37:00,
2013-10-22 13:42:00,76.4,61.0,29.84,North,355,2.0,3.0,59,0.00,,,0.00,Wunderground v.1.15,2013-10-22 18:42:00,
2013-10-22 13:47:00,75.7,60.4,29.84,NNE,28,3.0,3.0,59,0.00,,,0.00,Wunderground v.1.15,2013-10-22 18:47:00,
2013-10-22 13:52:00,75.6,60.3,29.84,ENE,63,2.0,3.0,59,0.00,,,0.00,Wunderground v.1.15,2013-10-22 18:52:00,
2013-10-22 14:02:00,75.3,60.0,29.83,NE,51,3.0,3.0,59,0.00,,,0.00,Wunderground v.1.15,2013-10-22 19:02:00,
2013-10-22 14:07:00,75.6,61.2,29.83,North,360,2.0,3.0,61,0.00,,,0.00,Wunderground v.1.15,2013-10-22 19:07:00,
2013-10-22 14:12:00,75.8,60.0,29.83,North,360,2.0,2.0,58,0.00,,,0.00,Wunderground v.1.15,2013-10-22 19:12:00,
2013-10-22 14:17:00,75.5,60.2,29.83,NNE,30,2.0,4.0,59,0.00,,,0.00,Wunderground v.1.15,2013-10-22 19:17:00,
2013-10-22 14:22:00,75.1,60.7,29.83,NE,40,2.0,3.0,61,0.00,,,0.00,Wunderground v.1.15,2013-10-22 19:22:00,
2013-10-22 14:27:00,74.7,60.4,29.83,SSW,206,2.0,3.0,61,0.00,,,0.00,Wunderground v.1.15,2013-10-22 19:27:00,
2013-10-22 14:32:00,74.7,60.8,29.83,NE,36,2.0,3.0,62,0.00,,,0.00,Wunderground v.1.15,2013-10-22 19:32:00,
2013-10-22 14:37:00,74.6,61.6,29.83,SW,227,2.0,3.0,64,0.00,,,0.00,Wunderground v.1.15,2013-10-22 19:37:00,
2013-10-22 14:42:00,74.5,61.5,29.83,NNE,22,2.0,3.0,64,0.00,,,0.00,Wunderground v.1.15,2013-10-22 19:42:00,
2013-10-22 14:47:00,74.2,61.7,29.83,NE,49,2.0,3.0,65,0.00,,,0.00,Wunderground v.1.15,2013-10-22 19:47:00,
2013-10-22 14:52:00,74.0,61.5,29.83,NNE,26,2.0,2.0,65,0.00,,,0.00,Wunderground v.1.15,2013-10-22 19:52:00,
2013-10-22 14:57:00,73.9,61.0,29.83,NW,323,2.0,3.0,64,0.00,,,0.00,Wunderground v.1.15,2013-10-22 19:57:00,
2013-10-22 15:02:00,73.9,61.8,29.83,NW,307,1.0,1.0,66,0.00,,,0.00,Wunderground v.1.15,2013-10-22 20:02:00,
2013-10-22 15:07:00,74.0,61.5,29.83,NW,312,1.0,1.0,65,0.00,,,0.00,Wunderground v.1.15,2013-10-22 20:07:00,
2013-10-22 15:12:00,74.1,61.1,29.83,NNE,30,1.0,1.0,64,0.00,,,0.00,Wunderground v.1.15,2013-10-22 20:12:00,
2013-10-22 15:17:00,74.1,61.6,29.83,WSW,244,2.0,6.0,65,0.00,,,0.00,Wunderground v.1.15,2013-10-22 20:17:00,
2013-10-22 15:22:00,74.0,61.0,29.83,WSW,253,2.0,2.0,64,0.00,,,0.00,Wunderground v.1.15,2013-10-22 20:22:00,
2013-10-22 15:27:00,73.8,61.3,29.83,NNE,32,2.0,2.0,65,0.00,,,0.00,Wunderground v.1.15,2013-10-22 20:27:00,
2013-10-22 15:32:00,73.5,61.0,29.83,WNW,296,2.0,3.0,65,0.00,,,0.00,Wunderground v.1.15,2013-10-22 20:32:00,
2013-10-22 15:42:00,72.9,61.3,29.84,NNE,13,1.0,1.0,67,0.00,,,0.00,Wunderground v.1.15,2013-10-22 20:42:00,
2013-10-22 15:47:00,72.9,61.3,29.84,NNE,18,1.0,5.0,67,0.00,,,0.00,Wunderground v.1.15,2013-10-22 20:47:00,
2013-10-22 15:52:00,73.1,61.5,29.84,NW,323,2.0,5.0,67,0.00,,,0.00,Wunderground v.1.15,2013-10-22 20:52:00,
2013-10-22 15:57:00,73.1,61.1,29.84,NNE,26,3.0,5.0,66,0.00,,,0.00,Wunderground v.1.15,2013-10-22 20:57:00,
2013-10-22 16:02:00,73.0,61.4,29.84,NW,326,3.0,5.0,67,0.00,,,0.00,Wunderground v.1.15,2013-10-22 21:02:00,
2013-10-22 16:07:00,72.9,60.4,29.84,NE,51,3.0,5.0,65,0.00,,,0.00,Wunderground v.1.15,2013-10-22 21:07:00,
2013-10-22 16:12:00,72.5,60.9,29.84,North,360,3.0,5.0,67,0.00,,,0.00,Wunderground v.1.15,2013-10-22 21:12:00,
2013-10-22 16:17:00,72.2,60.2,29.84,NNE,20,3.0,5.0,66,0.00,,,0.00,Wunderground v.1.15,2013-10-22 21:17:00,
2013-10-22 16:22:00,72.0,60.0,29.84,NNE,27,3.0,5.0,66,0.00,,,0.00,Wunderground v.1.15,2013-10-22 21:22:00,
2013-10-22 16:27:00,71.8,60.2,29.84,NE,56,3.0,5.0,67,0.00,,,0.00,Wunderground v.1.15,2013-10-22 21:27:00,
2013-10-22 16:32:00,71.5,59.5,29.84,North,355,3.0,5.0,66,0.00,,,0.00,Wunderground v.1.15,2013-10-22 21:32:00,
2013-10-22 16:37:00,71.3,60.2,29.84,NNE,31,3.0,5.0,68,0.00,,,0.00,Wunderground v.1.15,2013-10-22 21:37:00,
2013-10-22 16:42:00,71.2,60.5,29.84,North,360,2.0,5.0,69,0.00,,,0.00,Wunderground v.1.15,2013-10-22 21:42:00,
2013-10-22 16:47:00,71.1,60.4,29.84,NNE,32,2.0,5.0,69,0.00,,,0.00,Wunderground v.1.15,2013-10-22 21:47:00,
2013-10-22 16:52:00,71.0,60.3,29.84,North,360,2.0,5.0,69,0.00,,,0.00,Wunderground v.1.15,2013-10-22 21:52:00,
2013-10-22 16:57:00,70.8,60.5,29.84,NE,46,3.0,5.0,70,0.00,,,0.00,Wunderground v.1.15,2013-10-22 21:57:00,
2013-10-22 17:02:00,70.5,60.2,29.84,North,360,3.0,5.0,70,0.00,,,0.00,Wunderground v.1.15,2013-10-22 22:02:00,
2013-10-22 17:07:00,70.2,60.4,29.84,North,11,3.0,5.0,71,0.00,,,0.00,Wunderground v.1.15,2013-10-22 22:07:00,
2013-10-22 17:12:00,70.0,60.6,29.84,NE,36,3.0,3.0,72,0.00,,,0.00,Wunderground v.1.15,2013-10-22 22:12:00,
2013-10-22 17:17:00,69.7,60.7,29.84,NNE,19,2.0,5.0,73,0.00,,,0.00,Wunderground v.1.15,2013-10-22 22:17:00,
2013-10-22 17:22:00,69.6,60.6,29.84,NNE,29,2.0,5.0,73,0.00,,,0.00,Wunderground v.1.15,2013-10-22 22:22:00,
2013-10-22 17:27:00,69.4,60.8,29.85,NNE,17,2.0,5.0,74,0.00,,,0.00,Wunderground v.1.15,2013-10-22 22:27:00,
2013-10-22 17:32:00,69.2,60.6,29.85,North,5,2.0,5.0,74,0.00,,,0.00,Wunderground v.1.15,2013-10-22 22:32:00,
2013-10-22 17:37:00,69.0,60.7,29.85,North,11,2.0,5.0,75,0.00,,,0.00,Wunderground v.1.15,2013-10-22 22:37:00,
2013-10-22 17:42:00,68.7,60.5,29.86,North,5,2.0,2.0,75,0.00,,,0.00,Wunderground v.1.15,2013-10-22 22:42:00,
2013-10-22 17:47:00,68.4,60.5,29.86,NE,43,2.0,5.0,76,0.00,,,0.00,Wunderground v.1.15,2013-10-22 22:47:00,
2013-10-22 17:52:00,68.2,60.3,29.86,NNE,13,2.0,5.0,76,0.00,,,0.00,Wunderground v.1.15,2013-10-22 22:52:00,
2013-10-22 17:57:00,68.0,60.5,29.86,North,355,2.0,5.0,77,0.00,,,0.00,Wunderground v.1.15,2013-10-22 22:57:00,
2013-10-22 18:02:00,67.7,60.2,29.86,North,5,2.0,5.0,77,0.00,,,0.00,Wunderground v.1.15,2013-10-22 23:02:00,
2013-10-22 18:07:00,67.5,60.0,29.86,North,360,2.0,5.0,77,0.00,,,0.00,Wunderground v.1.15,2013-10-22 23:07:00,
2013-10-22 18:12:00,67.2,60.1,29.86,NE,46,2.0,2.0,78,0.00,,,0.00,Wunderground v.1.15,2013-10-22 23:12:00,
2013-10-22 18:17:00,66.9,59.8,29.86,NNE,17,1.0,5.0,78,0.00,,,0.00,Wunderground v.1.15,2013-10-22 23:17:00,
2013-10-22 18:22:00,66.7,60.0,29.86,NNW,327,1.0,5.0,79,0.00,,,0.00,Wunderground v.1.15,2013-10-22 23:22:00,
2013-10-22 18:27:00,66.3,59.6,29.87,WSW,254,1.0,5.0,79,0.00,,,0.00,Wunderground v.1.15,2013-10-22 23:27:00,
2013-10-22 18:32:00,66.0,59.7,29.87,NE,48,1.0,1.0,80,0.00,,,0.00,Wunderground v.1.15,2013-10-22 23:32:00,
2013-10-22 18:37:00,65.7,59.4,29.87,NNE,28,1.0,5.0,80,0.00,,,0.00,Wunderground v.1.15,2013-10-22 23:37:00,
2013-10-22 18:42:00,65.3,59.0,29.87,NNW,336,1.0,5.0,80,0.00,,,0.00,Wunderground v.1.15,2013-10-22 23:42:00,
2013-10-22 18:47:00,65.0,58.7,29.87,ENE,69,1.0,5.0,80,0.00,,,0.00,Wunderground v.1.15,2013-10-22 23:47:00,
2013-10-22 18:52:00,64.8,58.5,29.87,NNE,24,1.0,1.0,80,0.00,,,0.00,Wunderground v.1.15,2013-10-22 23:52:00,
2013-10-22 18:57:00,64.5,58.5,29.87,NE,37,1.0,5.0,81,0.00,,,0.00,Wunderground v.1.15,2013-10-22 23:57:00,
2013-10-22 19:02:00,64.2,58.2,29.87,NE,51,1.0,5.0,81,0.00,,,0.00,Wunderground v.1.15,2013-10-23 00:02:00,
2013-10-22 19:07:00,63.9,58.0,29.87,NW,315,1.0,5.0,81,0.00,,,0.00,Wunderground v.1.15,2013-10-23 00:07:00,
2013-10-22 19:12:00,63.7,58.1,29.88,NW,306,0.0,5.0,82,0.00,,,0.00,Wunderground v.1.15,2013-10-23 00:12:00,
2013-10-22 19:17:00,63.4,57.8,29.88,NW,319,0.0,5.0,82,0.00,,,0.00,Wunderground v.1.15,2013-10-23 00:17:00,
2013-10-22 19:22:00,63.1,57.9,29.88,NNW,331,0.0,5.0,83,0.00,,,0.00,Wunderground v.1.15,2013-10-23 00:22:00,
2013-10-22 19:27:00,62.8,57.6,29.88,NNE,21,1.0,5.0,83,0.00,,,0.00,Wunderground v.1.15,2013-10-23 00:27:00,
2013-10-22 19:32:00,62.5,57.6,29.88,NNE,24,1.0,1.0,84,0.00,,,0.00,Wunderground v.1.15,2013-10-23 00:32:00,
2013-10-22 19:37:00,62.3,57.4,29.88,NNE,23,1.0,5.0,84,0.00,,,0.00,Wunderground v.1.15,2013-10-23 00:37:00,
2013-10-22 19:42:00,62.0,57.4,29.88,NNE,23,0.0,5.0,85,0.00,,,0.00,Wunderground v.1.15,2013-10-23 00:42:00,
2013-10-22 19:47:00,61.7,57.1,29.88,NNE,23,0.0,5.0,85,0.00,,,0.00,Wunderground v.1.15,2013-10-23 00:47:00,
2013-10-22 19:52:00,61.4,57.2,29.88,NNE,22,0.0,5.0,86,0.00,,,0.00,Wunderground v.1.15,2013-10-23 00:52:00,
2013-10-22 19:57:00,61.0,56.8,29.89,NNE,23,0.0,5.0,86,0.00,,,0.00,Wunderground v.1.15,2013-10-23 00:57:00,
2013-10-22 20:02:00,60.7,56.8,29.89,NNE,23,0.0,5.0,87,0.00,,,0.00,Wunderground v.1.15,2013-10-23 01:02:00,
2013-10-22 20:07:00,60.4,56.5,29.89,NNE,22,0.0,5.0,87,0.00,,,0.00,Wunderground v.1.15,2013-10-23 01:07:00,
2013-10-22 20:12:00,60.2,56.3,29.90,NNE,22,0.0,5.0,87,0.00,,,0.00,Wunderground v.1.15,2013-10-23 01:12:00,
2013-10-22 20:17:00,60.0,56.1,29.90,NNE,23,0.0,5.0,87,0.00,,,0.00,Wunderground v.1.15,2013-10-23 01:17:00,
2013-10-22 20:22:00,59.7,56.1,29.90,NNE,22,0.0,5.0,88,0.00,,,0.00,Wunderground v.1.15,2013-10-23 01:22:00,
2013-10-22 20:27:00,59.4,55.8,29.89,NNE,23,0.0,5.0,88,0.00,,,0.00,Wunderground v.1.15,2013-10-23 01:27:00,
2013-10-22 20:32:00,59.1,55.5,29.89,NNE,23,0.0,5.0,88,0.00,,,0.00,Wunderground v.1.15,2013-10-23 01:32:00,
2013-10-22 20:42:00,58.5,55.3,29.90,NNE,23,0.0,5.0,89,0.00,,,0.00,Wunderground v.1.15,2013-10-23 01:42:00,
2013-10-22 20:47:00,58.3,55.1,29.90,NNE,22,0.0,5.0,89,0.00,,,0.00,Wunderground v.1.15,2013-10-23 01:47:00,
2013-10-22 20:52:00,58.0,54.8,29.90,NNE,22,0.0,5.0,89,0.00,,,0.00,Wunderground v.1.15,2013-10-23 01:52:00,
2013-10-22 20:57:00,57.8,54.9,29.90,NNE,23,0.0,5.0,90,0.00,,,0.00,Wunderground v.1.15,2013-10-23 01:57:00,
2013-10-22 21:02:00,57.6,54.7,29.90,NNE,23,0.0,5.0,90,0.00,,,0.00,Wunderground v.1.15,2013-10-23 02:02:00,
2013-10-22 21:07:00,57.5,54.6,29.90,NNE,23,0.0,5.0,90,0.00,,,0.00,Wunderground v.1.15,2013-10-23 02:07:00,
2013-10-22 21:12:00,57.3,54.7,29.90,NNE,22,0.0,5.0,91,0.00,,,0.00,Wunderground v.1.15,2013-10-23 02:12:00,
2013-10-22 21:17:00,57.1,54.5,29.90,NNE,22,0.0,5.0,91,0.00,,,0.00,Wunderground v.1.15,2013-10-23 02:17:00,
2013-10-22 21:22:00,56.9,54.3,29.90,NNE,22,0.0,5.0,91,0.00,,,0.00,Wunderground v.1.15,2013-10-23 02:22:00,
2013-10-22 21:27:00,56.7,54.1,29.90,NNE,22,0.0,5.0,91,0.00,,,0.00,Wunderground v.1.15,2013-10-23 02:27:00,
2013-10-22 21:32:00,56.6,54.0,29.90,NNE,22,0.0,5.0,91,0.00,,,0.00,Wunderground v.1.15,2013-10-23 02:32:00,
2013-10-22 21:37:00,56.5,53.9,29.90,NNE,22,0.0,5.0,91,0.00,,,0.00,Wunderground v.1.15,2013-10-23 02:37:00,
2013-10-22 21:42:00,56.4,54.1,29.90,NNE,22,0.0,5.0,92,0.00,,,0.00,Wunderground v.1.15,2013-10-23 02:42:00,
2013-10-22 21:47:00,56.3,54.0,29.90,NNE,22,0.0,5.0,92,0.00,,,0.00,Wunderground v.1.15,2013-10-23 02:47:00,
2013-10-22 21:52:00,56.1,53.8,29.90,NNE,22,0.0,5.0,92,0.00,,,0.00,Wunderground v.1.15,2013-10-23 02:52:00,
2013-10-22 21:57:00,55.9,53.6,29.91,NNE,22,0.0,5.0,92,0.00,,,0.00,Wunderground v.1.15,2013-10-23 02:57:00,
2013-10-22 22:02:00,55.8,53.5,29.91,NNE,22,0.0,5.0,92,0.00,,,0.00,Wunderground v.1.15,2013-10-23 03:02:00,
2013-10-22 22:07:00,55.6,53.3,29.91,NNE,22,0.0,5.0,92,0.00,,,0.00,Wunderground v.1.15,2013-10-23 03:07:00,
2013-10-22 22:12:00,55.4,53.1,29.90,NNE,22,0.0,5.0,92,0.00,,,0.00,Wunderground v.1.15,2013-10-23 03:12:00,
2013-10-22 22:17:00,55.3,53.0,29.90,NNE,22,0.0,5.0,92,0.00,,,0.00,Wunderground v.1.15,2013-10-23 03:17:00,
2013-10-22 22:22:00,55.1,52.8,29.90,NNE,22,0.0,5.0,92,0.00,,,0.00,Wunderground v.1.15,2013-10-23 03:22:00,
2013-10-22 22:27:00,55.0,53.0,29.91,NNE,22,0.0,5.0,93,0.00,,,0.00,Wunderground v.1.15,2013-10-23 03:27:00,
2013-10-22 22:32:00,54.9,52.6,29.91,NNE,22,0.0,5.0,92,0.00,,,0.00,Wunderground v.1.15,2013-10-23 03:32:00,
2013-10-22 22:37:00,54.8,52.5,29.91,NNE,22,0.0,5.0,92,0.00,,,0.00,Wunderground v.1.15,2013-10-23 03:37:00,
2013-10-22 22:42:00,54.6,52.6,29.90,NNE,22,0.0,5.0,93,0.00,,,0.00,Wunderground v.1.15,2013-10-23 03:42:00,
2013-10-22 22:47:00,54.4,52.1,29.90,NNE,22,0.0,5.0,92,0.00,,,0.00,Wunderground v.1.15,2013-10-23 03:47:00,
2013-10-22 22:57:00,54.0,51.7,29.90,NNE,22,0.0,5.0,92,0.00,,,0.00,Wunderground v.1.15,2013-10-23 03:57:00,
2013-10-22 23:02:00,53.9,51.9,29.90,NNE,22,0.0,5.0,93,0.00,,,0.00,Wunderground v.1.15,2013-10-23 04:02:00,
2013-10-22 23:07:00,53.9,51.9,29.90,NNE,22,0.0,5.0,93,0.00,,,0.00,Wunderground v.1.15,2013-10-23 04:07:00,
2013-10-22 23:12:00,53.8,51.8,29.91,NNE,22,0.0,5.0,93,0.00,,,0.00,Wunderground v.1.15,2013-10-23 04:12:00,
2013-10-22 23:17:00,53.7,51.7,29.91,NNE,22,0.0,5.0,93,0.00,,,0.00,Wunderground v.1.15,2013-10-23 04:17:00,
2013-10-22 23:22:00,53.6,51.6,29.91,NNE,22,0.0,5.0,93,0.00,,,0.00,Wunderground v.1.15,2013-10-23 04:22:00,
2013-10-22 23:27:00,53.4,51.4,29.91,NNE,22,0.0,5.0,93,0.00,,,0.00,Wunderground v.1.15,2013-10-23 04:27:00,
2013-10-22 23:32:00,53.3,51.3,29.91,NNE,22,0.0,5.0,93,0.00,,,0.00,Wunderground v.1.15,2013-10-23 04:32:00,
2013-10-22 23:42:00,52.8,50.8,29.91,NNE,22,0.0,5.0,93,0.00,,,0.00,Wunderground v.1.15,2013-10-23 04:42:00,
2013-10-22 23:47:00,52.6,50.6,29.91,NNE,22,0.0,5.0,93,0.00,,,0.00,Wunderground v.1.15,2013-10-23 04:47:00,
2013-10-22 23:52:00,52.4,50.4,29.91,NNE,22,0.0,5.0,93,0.00,,,0.00,Wunderground v.1.15,2013-10-23 04:52:00,
2013-10-22 23:57:00,52.4,50.4,29.92,NNE,22,0.0,5.0,93,0.00,,,0.00,Wunderground v.1.15,2013-10-23 04:57:00,